King Salmon, AK

10:10 AM AKDT on July 23, 2016 (GMT -0800)
Port Heiden

Weather History for PAPH - July, 2013

Change the Weather History Date:

Thursday, July 11, 2013

  Actual Average Record
Temperature  
Mean Temperature 56 °F -  
Max Temperature 69 °F 55 °F 71 °F (2011)
Min Temperature 42 °F 44 °F 33 °F (2007)
Degree Days  
Heating Degree Days 10    
Growing Degree Days 6 (Base 50)    
Moisture  
Dew Point 43 °F    
Average Humidity 62    
Maximum Humidity 81    
Minimum Humidity 32    
Precipitation  
Precipitation 0.00 in - - ()
Sea Level Pressure  
Sea Level Pressure 29.94 in    
Wind  
Wind Speed 7 mph (NNE)    
Max Wind Speed 13 mph    
Max Gust Speed -    
Visibility 10 miles    
Events      
Averages and records for this station are not official NWS values.
T = Trace of Precipitation, MM = Missing Value Source: NWS Daily Summary

Daily Weather History Graph

Daily Weather History Graph

Search for Another Location

Airport or City:

Trip Planner

Search our weather history database for the weather conditions in past years. The results will help you decide how hot, cold, wet, or windy it might be!

Date:

Astronomy

Jul. 11, 2013 Rise Set
Actual Time 5:57 AM AKDT 11:21 PM AKDT
Civil Twilight 4:56 AM AKDT 12:22 AM AKDT
Nautical Twilight 3:12 AM AKDT 2:07 AM AKDT
Astronomical Twilight Sun does not set Sun does not set
Moon 10:23 AM AKDT (7/11) No Moon Set
Length of Visible Light 19h 26m
Length of Day
17h 23m
Waxing Crescent, 11% of the Moon is Illuminated
Jul 11
Waxing Crescent
Jul 15
First Quarter
Jul 22
Full
Jul 29
Last Quarter
Aug 6
New

Hourly Weather History & Observations

Time (AKDT) Temp. Windchill Dew Point Humidity Pressure Visibility Wind Dir Wind Speed Gust Speed Precip Events Conditions
12:16 AM 44.6 °F 40.7 °F 35.6 °F 71% 30.07 in 10.0 mi NNE 6.9 mph - N/A   Clear
12:36 AM 44.6 °F 40.2 °F 37.4 °F 76% 30.06 in 10.0 mi NNE 8.1 mph - N/A   Clear
12:56 AM 44.6 °F 39.2 °F 35.6 °F 71% 30.06 in 10.0 mi North 10.4 mph - N/A   Clear
1:16 AM 42.8 °F 37.0 °F 35.6 °F 76% 30.05 in 10.0 mi NNE 10.4 mph - N/A   Clear
1:36 AM 42.8 °F 38.0 °F 35.6 °F 76% 30.05 in 10.0 mi NE 8.1 mph - N/A   Clear
1:56 AM 42.8 °F 37.0 °F 37.4 °F 81% 30.05 in 10.0 mi NE 10.4 mph - N/A   Clear
2:16 AM 44.6 °F 40.2 °F 37.4 °F 76% 30.05 in 10.0 mi NE 8.1 mph - N/A   Clear
2:36 AM 44.6 °F 40.7 °F 37.4 °F 76% 30.04 in 10.0 mi NE 6.9 mph - N/A   Clear
2:56 AM 42.8 °F 38.6 °F 35.6 °F 76% 30.04 in 10.0 mi NE 6.9 mph - N/A   Clear
3:16 AM 42.8 °F 40.1 °F 37.4 °F 81% 30.04 in 10.0 mi NE 4.6 mph - N/A   Clear
3:36 AM 41.0 °F 36.4 °F 35.6 °F 81% 30.04 in 10.0 mi NE 6.9 mph - N/A   Clear
3:56 AM 42.8 °F 37.5 °F 37.4 °F 81% 30.03 in 10.0 mi NE 9.2 mph - N/A   Clear
4:16 AM 44.6 °F 40.7 °F 39.2 °F 81% 30.02 in 10.0 mi ENE 6.9 mph - N/A   Clear
4:36 AM 44.6 °F 40.7 °F 39.2 °F 81% 30.01 in 10.0 mi ENE 6.9 mph - N/A   Clear
4:56 AM 44.6 °F 40.2 °F 37.4 °F 76% 30.01 in 10.0 mi NE 8.1 mph - N/A   Clear
5:16 AM 42.8 °F 39.3 °F 37.4 °F 81% 30.00 in 10.0 mi ENE 5.8 mph - N/A   Clear
5:36 AM 44.6 °F 40.7 °F 37.4 °F 76% 29.99 in 10.0 mi NE 6.9 mph - N/A   Clear
5:56 AM 44.6 °F 41.4 °F 35.6 °F 71% 29.99 in 10.0 mi ENE 5.8 mph - N/A   Clear
6:16 AM 46.4 °F 41.5 °F 37.4 °F 71% 29.98 in 10.0 mi NE 10.4 mph - N/A   Clear
6:36 AM 46.4 °F 41.9 °F 39.2 °F 76% 29.97 in 10.0 mi NE 9.2 mph - N/A   Clear
6:56 AM 48.2 °F - 39.2 °F 71% 29.97 in 10.0 mi ENE 9.2 mph - N/A   Clear
7:16 AM 48.2 °F - 39.2 °F 71% 29.96 in 10.0 mi NE 10.4 mph - N/A   Clear
7:36 AM 51.8 °F - 39.2 °F 62% 29.95 in 10.0 mi NE 10.4 mph - N/A   Clear
7:56 AM 51.8 °F - 41.0 °F 67% 29.95 in 10.0 mi NE 5.8 mph - N/A   Clear
8:16 AM 51.8 °F - 42.8 °F 71% 29.95 in 10.0 mi NE 8.1 mph - N/A   Clear
8:36 AM 53.6 °F - 42.8 °F 67% 29.94 in 10.0 mi NE 9.2 mph - N/A   Clear
8:56 AM - - - N/A% - - North - - N/A   Unknown
9:16 AM 53.6 °F - 42.8 °F 67% 29.93 in 10.0 mi NNE 10.4 mph - N/A   Clear
9:36 AM 53.6 °F - 42.8 °F 67% 29.93 in 10.0 mi NNE 9.2 mph - N/A   Scattered Clouds
9:56 AM 53.6 °F - 42.8 °F 67% 29.92 in 10.0 mi ENE 9.2 mph - N/A   Overcast
10:16 AM 55.4 °F - 44.6 °F 67% 29.92 in 10.0 mi ENE 6.9 mph - N/A   Mostly Cloudy
10:36 AM 57.2 °F - 46.4 °F 67% 29.92 in 10.0 mi NE 6.9 mph - N/A   Scattered Clouds
10:56 AM 60.8 °F - 44.6 °F 55% 29.93 in 10.0 mi Calm Calm - N/A   Mostly Cloudy
11:16 AM 62.6 °F - 42.8 °F 48% 29.92 in 10.0 mi Calm Calm - N/A   Mostly Cloudy
11:36 AM 64.4 °F - 42.8 °F 45% 29.92 in 10.0 mi NW 3.5 mph - N/A   Mostly Cloudy
11:56 AM 64.4 °F - 44.6 °F 49% 29.92 in 10.0 mi West 3.5 mph - N/A   Overcast
12:16 PM 66.2 °F - 44.6 °F 46% 29.92 in 10.0 mi Calm Calm - N/A   Overcast
12:36 PM 66.2 °F - 44.6 °F 46% 29.91 in 10.0 mi NW 3.5 mph - N/A   Overcast
12:56 PM 64.4 °F - 42.8 °F 45% 29.90 in 10.0 mi WNW 6.9 mph - N/A   Overcast
1:16 PM 64.4 °F - 44.6 °F 49% 29.90 in 10.0 mi West 6.9 mph - N/A   Overcast
1:36 PM 64.4 °F - 42.8 °F 45% 29.90 in 10.0 mi NNW 6.9 mph - N/A   Overcast
1:56 PM 66.2 °F - 42.8 °F 43% 29.89 in 10.0 mi NW 9.2 mph - N/A   Overcast
2:16 PM 66.2 °F - 42.8 °F 43% 29.89 in 10.0 mi NW 6.9 mph - N/A   Overcast
2:36 PM 66.2 °F - 42.8 °F 43% 29.89 in 10.0 mi WNW 6.9 mph - N/A   Overcast
2:56 PM 68.0 °F - 44.6 °F 43% 29.89 in 10.0 mi WNW 8.1 mph - N/A   Overcast
3:16 PM 69.8 °F - 46.4 °F 43% 29.89 in 10.0 mi NW 4.6 mph - N/A   Overcast
3:36 PM 68.0 °F - 46.4 °F 46% 29.88 in 10.0 mi NW 5.8 mph - N/A   Overcast
3:56 PM 69.8 °F - 46.4 °F 43% 29.88 in 10.0 mi NW 5.8 mph - N/A   Overcast
4:16 PM 69.8 °F - 46.4 °F 43% 29.88 in 10.0 mi West 5.8 mph - N/A   Overcast
4:36 PM 68.0 °F - 44.6 °F 43% 29.88 in 10.0 mi West 8.1 mph - N/A   Overcast
4:56 PM 66.2 °F - 44.6 °F 46% 29.88 in 10.0 mi WNW 8.1 mph - N/A   Overcast
5:16 PM 66.2 °F - 44.6 °F 46% 29.88 in 10.0 mi WNW 6.9 mph - N/A   Overcast
5:36 PM 66.2 °F - 46.4 °F 49% 29.88 in 10.0 mi West 8.1 mph - N/A   Overcast
5:56 PM 66.2 °F - 46.4 °F 49% 29.88 in 10.0 mi West 9.2 mph - N/A   Mostly Cloudy
6:16 PM 66.2 °F - 48.2 °F 52% 29.88 in 10.0 mi West 9.2 mph - N/A   Overcast
6:36 PM 66.2 °F - 50.0 °F 56% 29.88 in 10.0 mi WSW 8.1 mph - N/A   Overcast
6:56 PM 64.4 °F - 48.2 °F 56% 29.88 in 10.0 mi WNW 9.2 mph - N/A   Overcast
7:16 PM 60.8 °F - 48.2 °F 63% 29.88 in 10.0 mi WNW 8.1 mph - N/A   Overcast
7:36 PM 62.6 °F - 48.2 °F 59% 29.87 in 10.0 mi NW 5.8 mph - N/A   Overcast
7:56 PM 64.4 °F - 51.8 °F 64% 29.87 in 10.0 mi South 4.6 mph - N/A   Overcast
8:16 PM 66.2 °F - 51.8 °F 60% 29.87 in 10.0 mi SE 10.4 mph - N/A   Overcast
8:36 PM 64.4 °F - 51.8 °F 64% 29.87 in 10.0 mi SSE 12.7 mph - N/A   Overcast
8:56 PM 60.8 °F - 50.0 °F 68% 29.88 in 10.0 mi North 4.6 mph - N/A   Overcast
9:16 PM 60.8 °F - 48.2 °F 63% 29.88 in 10.0 mi East 8.1 mph - N/A   Overcast
9:36 PM 59.0 °F - 48.2 °F 67% 29.88 in 10.0 mi East 6.9 mph - N/A   Overcast
9:56 PM 59.0 °F - 48.2 °F 67% 29.88 in 10.0 mi ENE 5.8 mph - N/A   Overcast
10:16 PM 59.0 °F - 48.2 °F 67% 29.88 in 10.0 mi NE 4.6 mph - N/A   Overcast
10:36 PM 59.0 °F - 50.0 °F 72% 29.88 in 10.0 mi ENE 4.6 mph - N/A   Overcast
10:56 PM 60.8 °F - 50.0 °F 68% 29.88 in 10.0 mi East 3.5 mph - N/A   Overcast
11:16 PM 60.8 °F - 50.0 °F 68% 29.89 in 10.0 mi Calm Calm - N/A   Overcast
11:36 PM 60.8 °F - 50.0 °F 68% 29.89 in 10.0 mi Calm Calm - N/A   Overcast
11:56 PM 60.8 °F - 50.0 °F 68% 29.89 in 10.0 mi NNW 4.6 mph - N/A   Overcast